When you browse on this site, cookies collect data to enhance your experience and personalize the content and advertising you see.
Visit our Privacy Policy to learn more. By continuing to use the site, you agree to this use of cookies and data.
  • In Romania
  • List of Countries
  • For 7 days
  • Water Temperature
  • Satellite Maps
  • Weather Map
  • Weather Widgets
  • user-avatar
    Login

    Hourly Weather Arnoldstein

    Today, 21 July, Sunday

    Time Temperature Precipitation Wind Pressure Humidity
    00:00 +19°C° 0.5 mm 1 mps 695 mmHg 93%
    01:00 +18°C° 0 mm 2 mps 695 mmHg 91%
    02:00 +17°C° 0 mm 2 mps 695 mmHg 90%
    03:00 +18°C° 0 mm 1 mps 694 mmHg 89%
    04:00 +18°C° 0 mm 1 mps 694 mmHg 88%
    05:00 +19°C° 0 mm 1 mps 694 mmHg 86%
    06:00 +20°C° 0 mm 1 mps 695 mmHg 83%
    07:00 +22°C° 0 mm 1 mps 695 mmHg 83%
    08:00 +23°C° 0.1 mm 1 mps 696 mmHg 77%
    09:00 +25°C° 0.1 mm 1 mps 696 mmHg 70%
    10:00 +27°C° 0.1 mm 1 mps 697 mmHg 64%
    11:00 +27°C° 0.6 mm 1 mps 697 mmHg 64%
    12:00 +27°C° 0.6 mm 1 mps 697 mmHg 64%
    13:00 +27°C° 0.6 mm 1 mps 697 mmHg 64%
    14:00 +26°C° 0.5 mm 1 mps 697 mmHg 68%
    15:00 +26°C° 0.5 mm 1 mps 697 mmHg 71%
    16:00 +23°C° 0.5 mm 0 mps 696 mmHg 75%
    17:00 +22°C° 0.6 mm 0 mps 696 mmHg 79%
    18:00 +21°C° 0.6 mm 0 mps 696 mmHg 83%
    19:00 +20°C° 0.6 mm 0 mps 696 mmHg 87%
    20:00 +19°C° 0.3 mm 0 mps 697 mmHg 88%
    21:00 +20°C° 0.3 mm 1 mps 697 mmHg 89%
    22:00 +18°C° 0.3 mm 1 mps 698 mmHg 91%
    23:00 +18°C° 0 mm 1 mps 697 mmHg 91%

    Tomorrow, 22 July, Monday

    Time Temperature Precipitation Wind Pressure Humidity
    00:00 +18°C° 0 mm 1 mps 697 mmHg 91%
    01:00 +16°C° 0 mm 1 mps 697 mmHg 91%
    02:00 +16°C° 0 mm 1 mps 697 mmHg 90%
    03:00 +16°C° 0 mm 1 mps 697 mmHg 90%
    04:00 +16°C° 0 mm 1 mps 697 mmHg 89%
    05:00 +18°C° 0 mm 1 mps 697 mmHg 87%
    06:00 +17°C° 0 mm 0 mps 698 mmHg 86%
    07:00 +18°C° 0 mm 0 mps 698 mmHg 84%
    08:00 +22°C° 0 mm 1 mps 698 mmHg 76%
    09:00 +24°C° 0 mm 1 mps 699 mmHg 68%
    10:00 +26°C° 0 mm 1 mps 699 mmHg 60%
    11:00 +27°C° 0.1 mm 1 mps 699 mmHg 56%
    12:00 +28°C° 0.1 mm 1 mps 699 mmHg 53%
    13:00 +29°C° 0.1 mm 1 mps 699 mmHg 49%
    14:00 +29°C° 0 mm 1 mps 699 mmHg 50%
    15:00 +29°C° 0 mm 1 mps 698 mmHg 50%
    16:00 +28°C° 0 mm 1 mps 698 mmHg 51%
    17:00 +27°C° 0.1 mm 1 mps 698 mmHg 62%
    18:00 +25°C° 0.1 mm 1 mps 698 mmHg 73%
    19:00 +23°C° 0.1 mm 1 mps 697 mmHg 83%
    20:00 +22°C° 0 mm 1 mps 697 mmHg 85%
    21:00 +21°C° 0 mm 1 mps 698 mmHg 86%
    22:00 +20°C° 0 mm 1 mps 698 mmHg 87%
    23:00 +19°C° 0 mm 1 mps 697 mmHg 88%

    Day after tomorrow, 23 July, Tuesday

    Time Temperature Precipitation Wind Pressure Humidity
    00:00 +19°C° 0 mm 1 mps 697 mmHg 89%
    01:00 +19°C° 0 mm 1 mps 697 mmHg 90%
    02:00 +18°C° 0 mm 1 mps 697 mmHg 91%
    03:00 +18°C° 0 mm 1 mps 697 mmHg 91%
    04:00 +16°C° 0 mm 1 mps 696 mmHg 92%
    05:00 +19°C° 0 mm 1 mps 697 mmHg 89%
    06:00 +20°C° 0 mm 1 mps 697 mmHg 86%
    07:00 +19°C° 0 mm 0 mps 697 mmHg 84%
    08:00 +23°C° 0 mm 1 mps 697 mmHg 75%
    09:00 +25°C° 0 mm 1 mps 698 mmHg 66%
    10:00 +27°C° 0 mm 1 mps 698 mmHg 57%
    11:00 +28°C° 0.1 mm 1 mps 698 mmHg 55%
    12:00 +29°C° 0.1 mm 1 mps 697 mmHg 53%
    13:00 +29°C° 0.1 mm 1 mps 697 mmHg 50%
    14:00 +29°C° 0.2 mm 1 mps 697 mmHg 52%
    15:00 +29°C° 0.2 mm 1 mps 697 mmHg 54%
    16:00 +29°C° 0.2 mm 1 mps 696 mmHg 55%
    17:00 +27°C° 0.2 mm 1 mps 696 mmHg 65%
    18:00 +26°C° 0.2 mm 1 mps 696 mmHg 74%
    19:00 +24°C° 0.2 mm 1 mps 695 mmHg 84%
    20:00 +23°C° 0 mm 1 mps 695 mmHg 86%
    21:00 +22°C° 0 mm 1 mps 696 mmHg 88%
    22:00 +20°C° 0 mm 1 mps 696 mmHg 90%
    23:00 +18°C° 0 mm 0 mps 696 mmHg 90%

    24 July, Wednesday

    Time Temperature Precipitation Wind Pressure Humidity
    00:00 +18°C° 0 mm 0 mps 695 mmHg 91%
    01:00 +17°C° 0 mm 0 mps 695 mmHg 92%
    02:00 +17°C° 0 mm 0 mps 695 mmHg 92%
    03:00 +17°C° 0 mm 0 mps 695 mmHg 93%
    04:00 +16°C° 0 mm 0 mps 694 mmHg 93%
    05:00 +18°C° 0 mm 0 mps 695 mmHg 90%
    06:00 +19°C° 0 mm 0 mps 695 mmHg 87%
    07:00 +21°C° 0 mm 0 mps 695 mmHg 84%
    08:00 +23°C° 0 mm 0 mps 696 mmHg 76%
    09:00 +25°C° 0 mm 0 mps 696 mmHg 67%
    10:00 +29°C° 0 mm 1 mps 696 mmHg 59%
    11:00 +30°C° 0 mm 1 mps 696 mmHg 56%
    12:00 +30°C° 0 mm 1 mps 696 mmHg 54%
    13:00 +31°C° 0 mm 1 mps 696 mmHg 51%
    14:00 +30°C° 0.2 mm 1 mps 695 mmHg 55%
    15:00 +30°C° 0.2 mm 1 mps 695 mmHg 60%
    16:00 +29°C° 0.2 mm 2 mps 695 mmHg 64%
    17:00 +27°C° 0.4 mm 1 mps 694 mmHg 72%
    18:00 +26°C° 0.4 mm 1 mps 694 mmHg 80%
    19:00 +24°C° 0.4 mm 1 mps 694 mmHg 88%
    20:00 +23°C° 0 mm 1 mps 694 mmHg 89%
    21:00 +22°C° 0 mm 1 mps 695 mmHg 91%
    22:00 +19°C° 0 mm 0 mps 695 mmHg 93%
    23:00 +19°C° 0 mm 0 mps 695 mmHg 93%

    25 July, Thursday

    Time Temperature Precipitation Wind Pressure Humidity
    00:00 +19°C° 0 mm 0 mps 694 mmHg 94%
    01:00 +18°C° 0 mm 0 mps 694 mmHg 94%
    02:00 +18°C° 0 mm 0 mps 694 mmHg 94%
    03:00 +18°C° 0 mm 0 mps 694 mmHg 95%
    04:00 +17°C° 0 mm 0 mps 694 mmHg 95%
    05:00 +19°C° 0 mm 0 mps 694 mmHg 94%
    06:00 +20°C° 0 mm 0 mps 694 mmHg 92%
    07:00 +21°C° 0 mm 0 mps 695 mmHg 91%
    08:00 +22°C° 0 mm 0 mps 695 mmHg 84%
    09:00 +25°C° 0 mm 1 mps 695 mmHg 77%
    10:00 +27°C° 0 mm 1 mps 695 mmHg 71%
    11:00 +27°C° 0 mm 1 mps 695 mmHg 69%
    12:00 +28°C° 0 mm 1 mps 694 mmHg 67%
    13:00 +28°C° 0 mm 1 mps 694 mmHg 65%
    14:00 +28°C° 0.1 mm 1 mps 694 mmHg 65%
    15:00 +28°C° 0.1 mm 1 mps 694 mmHg 64%
    16:00 +28°C° 0.1 mm 1 mps 694 mmHg 63%
    17:00 +27°C° 0.1 mm 1 mps 693 mmHg 70%
    18:00 +26°C° 0.1 mm 1 mps 693 mmHg 77%
    19:00 +25°C° 0.1 mm 1 mps 693 mmHg 83%
    20:00 +24°C° 0 mm 1 mps 693 mmHg 85%
    21:00 +22°C° 0 mm 1 mps 693 mmHg 87%
    22:00 +21°C° 0 mm 1 mps 693 mmHg 89%
    23:00 +21°C° 0 mm 1 mps 693 mmHg 89%

    26 July, Friday

    Time Temperature Precipitation Wind Pressure Humidity
    00:00 +19°C° 0 mm 0 mps 693 mmHg 90%
    01:00 +18°C° 0 mm 0 mps 693 mmHg 91%
    02:00 +18°C° 0 mm 0 mps 692 mmHg 91%
    03:00 +18°C° 0 mm 0 mps 692 mmHg 92%
    04:00 +17°C° 0 mm 0 mps 692 mmHg 92%
    05:00 +19°C° 0 mm 0 mps 692 mmHg 89%
    06:00 +20°C° 0 mm 0 mps 692 mmHg 86%
    07:00 +21°C° 0 mm 0 mps 693 mmHg 83%
    08:00 +23°C° 0 mm 0 mps 693 mmHg 77%
    09:00 +24°C° 0 mm 0 mps 693 mmHg 71%
    10:00 +26°C° 0 mm 0 mps 693 mmHg 64%
    11:00 +28°C° 0.1 mm 1 mps 693 mmHg 64%
    12:00 +29°C° 0.1 mm 1 mps 693 mmHg 63%
    13:00 +29°C° 0.1 mm 1 mps 693 mmHg 63%
    14:00 +29°C° 0.3 mm 1 mps 692 mmHg 64%
    15:00 +28°C° 0.3 mm 1 mps 692 mmHg 66%
    16:00 +28°C° 0.3 mm 1 mps 692 mmHg 68%
    17:00 +27°C° 0.4 mm 1 mps 692 mmHg 74%
    18:00 +25°C° 0.4 mm 1 mps 692 mmHg 81%
    19:00 +24°C° 0.4 mm 1 mps 691 mmHg 88%
    20:00 +23°C° 1 mm 1 mps 691 mmHg 90%
    21:00 +22°C° 1 mm 1 mps 692 mmHg 92%
    22:00 +21°C° 1 mm 1 mps 692 mmHg 94%
    23:00 +20°C° 0.3 mm 1 mps 692 mmHg 94%
    Show more